Hourly Data Report for May 17, 2006

TORONTO CITY
ONTARIO

43°40'00.000" N
79°24'00.000" W
112.50 m
6158355
71508
XTO

Download Data

Hourly Data (May 2006)
Hourly Data Report for May 17, 2006
TIME
LST
Temp Definition
°C
Dew Point Definition
°C
Rel Hum Definition
%
Precip. Amount Definition
mm

Wind Dir Definition
10's deg

Wind Spd Definition
km/h
Visibility Definition
km
Stn Press Definition
kPa
Hmdx Definition


Wind Chill Definition


Weather Definition


00:00 11.6 11.2 97   LegendMM LegendMM   98.68     LegendNANA
01:00 11.4 11.1 98   LegendMM LegendMM   98.67     LegendNANA
02:00 10.7 10.5 99   LegendMM LegendMM   98.62     LegendNANA
03:00 10.9 10.7 99   LegendMM LegendMM   98.59     LegendNANA
04:00 10.5 10.3 99   LegendMM LegendMM   98.57     LegendNANA
05:00 10.4 10.1 98   LegendMM LegendMM   98.56     LegendNANA
06:00 10.9 10.6 98   LegendMM LegendMM   98.55     LegendNANA
07:00 12.1 10.9 92   LegendMM LegendMM   98.53     LegendNANA
08:00 14.3 11.5 83   LegendMM LegendMM   98.52     LegendNANA
09:00 16.5 12.0 75   LegendMM LegendMM   98.48     LegendNANA
10:00 18.2 12.6 70   LegendMM LegendMM   98.46     LegendNANA
11:00 18.7 12.8 69   LegendMM LegendMM   98.45     LegendNANA
12:00 20.1 13.0 64   LegendMM LegendMM   98.39     LegendNANA
13:00 19.4 12.8 66   LegendMM LegendMM   98.36     LegendNANA
14:00 18.7 12.5 67   LegendMM LegendMM   98.29     LegendNANA
15:00 18.3 12.9 71   LegendMM LegendMM   98.31     LegendNANA
16:00 14.3 13.5 95   LegendMM LegendMM   98.32     LegendNANA
17:00 14.8 14.3 97   LegendMM LegendMM   98.35     LegendNANA
18:00 13.4 12.7 96   LegendMM LegendMM   98.34     LegendNANA
19:00 13.3 12.5 95   LegendMM LegendMM   98.31     LegendNANA
20:00 12.4 11.6 95   LegendMM LegendMM   98.33     LegendNANA
21:00 13.2 12.4 95   LegendMM LegendMM   98.31     LegendNANA
22:00 13.5 12.1 91   LegendMM LegendMM   98.26     LegendNANA
23:00 13.4 11.8 90   LegendMM LegendMM   98.22     LegendNANA

Notes on Data Quality.

Legend

  • E = Estimated
  • M = Missing
  • NA = Not Available*
  • [empty] = Indicates an unobserved value
Date modified: